KAZSAT-2

Last updated on Jan. 29, 2020, 4:37 a.m. UTC

1 37749U 11035B   20028.73173319 -.00000197  00000-0  00000+0 0  9993
2 37749   0.0207 200.7944 0000650 183.3699  93.2193  1.00263302 31195
UTC
Height (km)
Latitude
Longitude
Inclination
Orbital Period
UTC large
Height (km)
Speed (km/s)
/
Latitude / Longitude
Inclination (degrees)
Orbital Period (minutes)
Azimuth
Elevation
Range (km)
Doppler Factor
iOS Compass Heading
iOS Angle

Next 30 passes for location: Hong Kong

Rise time Rise Azimuth (degrees) Set time Set Azimuth (degrees) Duration Max altitude (degrees)

No matching passes for this satellites